Time,TemperatureF,DewpointF,PressureIn,WindDirection,WindDirectionDegrees,WindSpeedMPH,WindSpeedGustMPH,Humidity,HourlyPrecipIn,Conditions,Clouds,dailyrainin,SoftwareType,DateUTC
2013-03-01 00:00:00,23.9,22.2,29.95,WNW,289,2.0,6.0,93,0.00,,---,0.00,VWS V14.01,2013-03-01 05:00:00,
2013-03-01 00:06:00,24.0,22.3,29.95,West,281,8.0,9.0,93,0.00,,---,0.00,VWS V14.01,2013-03-01 05:06:00,
2013-03-01 00:11:00,24.0,22.3,29.95,WNW,293,3.0,6.0,93,0.00,,---,0.00,VWS V14.01,2013-03-01 05:11:00,
2013-03-01 00:16:00,24.0,22.3,29.95,NW,308,2.0,7.0,93,0.00,,---,0.00,VWS V14.01,2013-03-01 05:16:00,
2013-03-01 00:21:00,24.0,22.3,29.95,NNW,328,4.0,6.0,93,0.00,,---,0.00,VWS V14.01,2013-03-01 05:21:00,
2013-03-01 00:26:00,23.9,22.2,29.95,NW,308,2.0,8.0,93,0.00,,---,0.00,VWS V14.01,2013-03-01 05:26:00,
2013-03-01 00:31:00,23.9,22.2,29.96,West,262,6.0,7.0,93,0.00,,---,0.00,VWS V14.01,2013-03-01 05:31:00,
2013-03-01 00:36:00,23.9,22.2,29.95,NNW,341,9.0,9.0,93,0.00,,---,0.00,VWS V14.01,2013-03-01 05:36:00,
2013-03-01 00:41:00,23.8,22.1,29.96,WNW,284,3.0,4.0,93,0.00,,---,0.00,VWS V14.01,2013-03-01 05:41:00,
2013-03-01 00:46:00,23.9,22.2,29.95,West,266,3.0,5.0,93,0.00,,---,0.00,VWS V14.01,2013-03-01 05:46:00,
2013-03-01 00:51:00,23.9,22.2,29.95,NW,325,3.0,6.0,93,0.00,,---,0.00,VWS V14.01,2013-03-01 05:51:00,
2013-03-01 00:56:00,23.8,22.1,29.95,WNW,284,3.0,7.0,93,0.00,,---,0.00,VWS V14.01,2013-03-01 05:56:00,
2013-03-01 01:01:00,23.9,22.4,29.95,WSW,254,3.0,5.0,94,0.00,,---,0.00,VWS V14.01,2013-03-01 06:01:00,
2013-03-01 01:06:00,23.8,22.1,29.95,West,273,3.0,5.0,93,0.00,,---,0.00,VWS V14.01,2013-03-01 06:06:00,
2013-03-01 01:11:00,23.8,22.3,29.96,NW,308,2.0,6.0,94,0.00,,---,0.00,VWS V14.01,2013-03-01 06:11:00,
2013-03-01 01:16:00,23.8,22.3,29.95,WNW,289,3.0,5.0,94,0.00,,---,0.00,VWS V14.01,2013-03-01 06:16:00,
2013-03-01 01:21:00,23.8,22.3,29.96,West,281,3.0,5.0,94,0.00,,---,0.00,VWS V14.01,2013-03-01 06:21:00,
2013-03-01 01:26:00,23.8,22.3,29.95,NW,314,5.0,12.0,94,0.00,,---,0.00,VWS V14.01,2013-03-01 06:26:00,
2013-03-01 01:31:00,23.8,22.3,29.95,NW,319,5.0,5.0,94,0.00,,---,0.00,VWS V14.01,2013-03-01 06:31:00,
2013-03-01 01:36:00,23.7,22.2,29.96,WNW,295,3.0,10.0,94,0.00,,---,0.00,VWS V14.01,2013-03-01 06:36:00,
2013-03-01 01:41:00,23.8,22.3,29.96,NW,308,1.0,8.0,94,0.00,,---,0.00,VWS V14.01,2013-03-01 06:41:00,
2013-03-01 01:46:00,23.7,22.2,29.96,NW,326,4.0,7.0,94,0.00,,---,0.00,VWS V14.01,2013-03-01 06:46:00,
2013-03-01 01:51:00,23.6,22.1,29.96,WNW,300,4.0,4.0,94,0.00,,---,0.00,VWS V14.01,2013-03-01 06:51:00,
2013-03-01 01:56:00,23.7,22.2,29.95,NNE,14,3.0,7.0,94,0.00,,---,0.00,VWS V14.01,2013-03-01 06:56:00,
2013-03-01 02:01:00,23.8,22.3,29.96,WNW,289,8.0,8.0,94,0.00,,---,0.00,VWS V14.01,2013-03-01 07:01:00,
2013-03-01 02:06:00,23.7,22.2,29.96,WNW,283,3.0,11.0,94,0.00,,---,0.00,VWS V14.01,2013-03-01 07:06:00,
2013-03-01 02:11:00,23.6,22.1,29.95,West,278,7.0,8.0,94,0.00,,---,0.00,VWS V14.01,2013-03-01 07:11:00,
2013-03-01 02:16:00,23.6,22.1,29.95,NNW,330,11.0,11.0,94,0.00,,---,0.00,VWS V14.01,2013-03-01 07:16:00,
2013-03-01 02:21:00,23.5,22.0,29.95,WNW,301,4.0,9.0,94,0.00,,---,0.00,VWS V14.01,2013-03-01 07:21:00,
2013-03-01 02:26:00,23.5,22.3,29.95,West,268,9.0,11.0,95,0.00,,---,0.00,VWS V14.01,2013-03-01 07:26:00,
2013-03-01 02:31:00,23.4,22.2,29.95,WNW,300,7.0,8.0,95,0.00,,---,0.00,VWS V14.01,2013-03-01 07:31:00,
2013-03-01 02:36:00,23.4,22.2,29.95,WNW,293,8.0,11.0,95,0.00,,---,0.00,VWS V14.01,2013-03-01 07:36:00,
2013-03-01 02:41:00,23.3,22.1,29.95,WSW,243,7.0,11.0,95,0.00,,---,0.00,VWS V14.01,2013-03-01 07:41:00,
2013-03-01 02:46:00,23.3,22.1,29.95,West,268,9.0,9.0,95,0.00,,---,0.00,VWS V14.01,2013-03-01 07:46:00,
2013-03-01 02:51:00,23.3,22.1,29.95,NW,312,6.0,8.0,95,0.00,,---,0.00,VWS V14.01,2013-03-01 07:51:00,
2013-03-01 02:56:00,23.3,22.1,29.95,West,275,8.0,9.0,95,0.00,,---,0.00,VWS V14.01,2013-03-01 07:56:00,
2013-03-01 03:01:00,23.2,22.0,29.94,NNW,339,6.0,7.0,95,0.00,,---,0.00,VWS V14.01,2013-03-01 08:01:00,
2013-03-01 03:06:00,23.2,22.0,29.94,West,272,4.0,6.0,95,0.00,,---,0.00,VWS V14.01,2013-03-01 08:06:00,
2013-03-01 03:11:00,23.1,21.9,29.94,NW,318,8.0,8.0,95,0.00,,---,0.00,VWS V14.01,2013-03-01 08:11:00,
2013-03-01 03:16:00,23.0,21.8,29.94,WNW,282,4.0,10.0,95,0.00,,---,0.00,VWS V14.01,2013-03-01 08:16:00,
2013-03-01 03:21:00,22.9,21.7,29.94,WNW,287,5.0,5.0,95,0.00,,---,0.00,VWS V14.01,2013-03-01 08:21:00,
2013-03-01 03:26:00,22.7,21.5,29.94,West,279,1.0,7.0,95,0.00,,---,0.00,VWS V14.01,2013-03-01 08:26:00,
2013-03-01 03:31:00,22.7,21.5,29.94,SW,227,3.0,7.0,95,0.00,,---,0.00,VWS V14.01,2013-03-01 08:31:00,
2013-03-01 03:36:00,22.6,21.4,29.94,NW,312,3.0,5.0,95,0.00,,---,0.00,VWS V14.01,2013-03-01 08:36:00,
2013-03-01 03:41:00,22.5,21.3,29.94,NW,313,3.0,6.0,95,0.00,,---,0.00,VWS V14.01,2013-03-01 08:41:00,
2013-03-01 03:46:00,22.5,21.3,29.94,West,272,9.0,9.0,95,0.00,,---,0.00,VWS V14.01,2013-03-01 08:46:00,
2013-03-01 03:51:00,22.6,21.4,29.94,NW,322,4.0,6.0,95,0.00,,---,0.00,VWS V14.01,2013-03-01 08:51:00,
2013-03-01 03:56:00,22.5,21.3,29.94,NNW,345,3.0,6.0,95,0.00,,---,0.00,VWS V14.01,2013-03-01 08:56:00,
2013-03-01 04:01:00,22.4,21.2,29.94,West,259,3.0,6.0,95,0.00,,---,0.00,VWS V14.01,2013-03-01 09:01:00,
2013-03-01 04:06:00,22.4,21.2,29.94,WNW,287,5.0,7.0,95,0.00,,---,0.00,VWS V14.01,2013-03-01 09:06:00,
2013-03-01 04:11:00,22.2,21.0,29.94,WNW,287,2.0,6.0,95,0.00,,---,0.00,VWS V14.01,2013-03-01 09:11:00,
2013-03-01 04:16:00,22.1,20.9,29.95,NNW,330,5.0,5.0,95,0.00,,---,0.00,VWS V14.01,2013-03-01 09:16:00,
2013-03-01 04:21:00,22.1,20.9,29.95,WNW,297,1.0,6.0,95,0.00,,---,0.00,VWS V14.01,2013-03-01 09:21:00,
2013-03-01 04:26:00,22.1,20.9,29.95,NW,320,2.0,5.0,95,0.00,,---,0.00,VWS V14.01,2013-03-01 09:26:00,
2013-03-01 04:31:00,21.9,20.7,29.95,NW,311,5.0,5.0,95,0.00,,---,0.00,VWS V14.01,2013-03-01 09:31:00,
2013-03-01 04:36:00,21.9,20.9,29.95,NW,310,4.0,6.0,96,0.00,,---,0.00,VWS V14.01,2013-03-01 09:36:00,
2013-03-01 04:41:00,22.0,21.0,29.96,WNW,296,4.0,5.0,96,0.00,,---,0.00,VWS V14.01,2013-03-01 09:41:00,
2013-03-01 04:46:00,21.8,20.6,29.96,NW,307,3.0,6.0,95,0.00,,---,0.00,VWS V14.01,2013-03-01 09:46:00,
2013-03-01 04:51:00,21.7,20.5,29.96,NW,309,2.0,8.0,95,0.00,,---,0.00,VWS V14.01,2013-03-01 09:51:00,
2013-03-01 04:56:00,21.7,20.7,29.96,WSW,252,6.0,6.0,96,0.00,,---,0.00,VWS V14.01,2013-03-01 09:56:00,
2013-03-01 05:01:00,21.9,20.9,29.97,NW,315,5.0,8.0,96,0.00,,---,0.00,VWS V14.01,2013-03-01 10:01:00,
2013-03-01 05:06:00,21.8,20.8,29.97,NW,309,3.0,9.0,96,0.00,,---,0.00,VWS V14.01,2013-03-01 10:06:00,
2013-03-01 05:11:00,21.8,20.8,29.97,West,272,7.0,7.0,96,0.00,,---,0.00,VWS V14.01,2013-03-01 10:11:00,
2013-03-01 05:16:00,21.8,20.8,29.97,West,274,5.0,6.0,96,0.00,,---,0.00,VWS V14.01,2013-03-01 10:16:00,
2013-03-01 05:21:00,21.8,20.8,29.97,WNW,288,3.0,6.0,96,0.00,,---,0.00,VWS V14.01,2013-03-01 10:21:00,
2013-03-01 05:26:00,21.7,20.7,29.97,WNW,302,3.0,6.0,96,0.00,,---,0.00,VWS V14.01,2013-03-01 10:26:00,
2013-03-01 05:31:00,21.6,20.6,29.97,NNW,332,3.0,8.0,96,0.00,,---,0.00,VWS V14.01,2013-03-01 10:31:00,
2013-03-01 05:36:00,21.7,20.7,29.97,WNW,288,3.0,4.0,96,0.00,,---,0.00,VWS V14.01,2013-03-01 10:36:00,
2013-03-01 05:41:00,21.7,20.7,29.97,NW,317,3.0,6.0,96,0.00,,---,0.00,VWS V14.01,2013-03-01 10:41:00,
2013-03-01 05:46:00,22.0,21.3,29.97,West,263,3.0,6.0,97,0.00,,---,0.00,VWS V14.01,2013-03-01 10:46:00,
2013-03-01 05:51:00,22.2,21.2,29.97,West,269,3.0,8.0,96,0.00,,---,0.00,VWS V14.01,2013-03-01 10:51:00,
2013-03-01 05:56:00,22.4,21.4,29.97,West,279,3.0,7.0,96,0.00,,---,0.00,VWS V14.01,2013-03-01 10:56:00,
2013-03-01 06:01:00,22.6,21.6,29.98,WNW,284,5.0,8.0,96,0.00,,---,0.00,VWS V14.01,2013-03-01 11:01:00,
2013-03-01 06:06:00,22.8,21.8,29.98,WNW,303,3.0,6.0,96,0.00,,---,0.00,VWS V14.01,2013-03-01 11:06:00,
2013-03-01 06:11:00,23.0,22.0,29.98,West,277,3.0,7.0,96,0.00,,---,0.00,VWS V14.01,2013-03-01 11:11:00,
2013-03-01 06:16:00,23.2,22.2,29.98,WNW,286,3.0,5.0,96,0.00,,---,0.00,VWS V14.01,2013-03-01 11:16:00,
2013-03-01 06:21:00,23.3,22.3,29.98,NW,304,1.0,3.0,96,0.00,,---,0.00,VWS V14.01,2013-03-01 11:21:00,
2013-03-01 06:26:00,23.4,22.4,29.98,WNW,290,1.0,4.0,96,0.00,,---,0.00,VWS V14.01,2013-03-01 11:26:00,
2013-03-01 06:31:00,23.5,22.5,29.97,WNW,282,4.0,4.0,96,0.00,,---,0.00,VWS V14.01,2013-03-01 11:31:00,
2013-03-01 06:36:00,23.6,22.6,29.98,West,271,1.0,3.0,96,0.00,,---,0.00,VWS V14.01,2013-03-01 11:36:00,
2013-03-01 06:41:00,23.6,22.4,29.98,WNW,295,1.0,5.0,95,0.00,,---,0.00,VWS V14.01,2013-03-01 11:41:00,
2013-03-01 06:46:00,23.7,22.5,29.98,WNW,301,1.0,2.0,95,0.00,,---,0.00,VWS V14.01,2013-03-01 11:46:00,
2013-03-01 06:51:00,23.7,22.5,29.98,WNW,289,0.0,1.0,95,0.00,,---,0.00,VWS V14.01,2013-03-01 11:51:00,
2013-03-01 06:56:00,23.8,22.6,29.98,WNW,292,0.0,2.0,95,0.00,,---,0.00,VWS V14.01,2013-03-01 11:56:00,
2013-03-01 07:01:00,23.8,22.6,29.99,WNW,293,1.0,1.0,95,0.00,,---,0.00,VWS V14.01,2013-03-01 12:01:00,
2013-03-01 07:06:00,23.8,22.6,29.98,WNW,301,2.0,3.0,95,0.00,,---,0.00,VWS V14.01,2013-03-01 12:06:00,
2013-03-01 07:11:00,23.9,22.4,29.99,WNW,289,3.0,3.0,94,0.00,,---,0.00,VWS V14.01,2013-03-01 12:11:00,
2013-03-01 07:16:00,24.0,22.5,29.99,NW,312,0.0,2.0,94,0.00,,---,0.00,VWS V14.01,2013-03-01 12:16:00,
2013-03-01 07:21:00,24.1,22.6,29.99,NW,305,1.0,3.0,94,0.00,,---,0.00,VWS V14.01,2013-03-01 12:21:00,
2013-03-01 07:26:00,24.0,22.3,29.98,West,259,2.0,6.0,93,0.00,,---,0.00,VWS V14.01,2013-03-01 12:26:00,
2013-03-01 07:31:00,24.1,22.4,29.98,West,278,1.0,3.0,93,0.00,,---,0.00,VWS V14.01,2013-03-01 12:31:00,
2013-03-01 07:36:00,24.3,22.3,29.98,WNW,291,1.0,3.0,92,0.00,,---,0.00,VWS V14.01,2013-03-01 12:36:00,
2013-03-01 07:41:00,24.5,22.5,29.98,WNW,299,1.0,2.0,92,0.00,,---,0.00,VWS V14.01,2013-03-01 12:41:00,
2013-03-01 07:46:00,24.8,22.8,29.98,NW,324,4.0,4.0,92,0.00,,---,0.00,VWS V14.01,2013-03-01 12:46:00,
2013-03-01 07:51:00,24.8,22.8,29.99,WNW,297,2.0,3.0,92,0.00,,---,0.00,VWS V14.01,2013-03-01 12:51:00,
2013-03-01 07:56:00,24.9,22.9,29.99,WSW,252,2.0,7.0,92,0.00,,---,0.00,VWS V14.01,2013-03-01 12:56:00,
2013-03-01 08:01:00,25.1,23.1,29.99,WNW,282,3.0,6.0,92,0.00,,---,0.00,VWS V14.01,2013-03-01 13:01:00,
2013-03-01 08:06:00,25.6,23.6,29.99,West,276,3.0,4.0,92,0.00,,---,0.00,VWS V14.01,2013-03-01 13:06:00,
2013-03-01 08:11:00,25.8,23.3,30.00,WNW,284,5.0,6.0,90,0.00,,---,0.00,VWS V14.01,2013-03-01 13:11:00,
2013-03-01 08:16:00,26.1,23.8,30.00,WNW,287,4.0,6.0,91,0.00,,---,0.00,VWS V14.01,2013-03-01 13:16:00,
2013-03-01 08:21:00,25.9,23.1,30.00,West,274,3.0,4.0,89,0.00,,---,0.00,VWS V14.01,2013-03-01 13:21:00,
2013-03-01 08:26:00,25.7,23.2,30.00,WNW,293,4.0,4.0,90,0.00,,---,0.00,VWS V14.01,2013-03-01 13:26:00,
2013-03-01 08:31:00,25.9,23.4,30.00,WNW,289,5.0,5.0,90,0.00,,---,0.00,VWS V14.01,2013-03-01 13:31:00,
2013-03-01 08:36:00,25.9,23.4,29.99,NW,307,6.0,6.0,90,0.00,,---,0.00,VWS V14.01,2013-03-01 13:36:00,
2013-03-01 08:41:00,26.0,23.5,29.99,NNW,328,1.0,6.0,90,0.00,,---,0.00,VWS V14.01,2013-03-01 13:41:00,
2013-03-01 08:46:00,26.0,23.2,30.00,NW,317,3.0,4.0,89,0.00,,---,0.00,VWS V14.01,2013-03-01 13:46:00,
2013-03-01 08:51:00,26.6,24.1,30.00,WNW,298,5.0,5.0,90,0.00,,---,0.00,VWS V14.01,2013-03-01 13:51:00,
2013-03-01 08:56:00,26.5,23.4,30.00,West,276,2.0,6.0,88,0.00,,---,0.00,VWS V14.01,2013-03-01 13:56:00,
2013-03-01 09:01:00,26.5,23.4,30.00,WSW,255,1.0,3.0,88,0.00,,---,0.00,VWS V14.01,2013-03-01 14:01:00,
2013-03-01 09:06:00,26.6,23.8,30.00,WNW,286,2.0,5.0,89,0.00,,---,0.00,VWS V14.01,2013-03-01 14:06:00,
2013-03-01 09:11:00,26.9,23.8,30.00,NW,304,3.0,3.0,88,0.00,,---,0.00,VWS V14.01,2013-03-01 14:11:00,
2013-03-01 09:16:00,27.5,24.4,30.00,West,280,3.0,4.0,88,0.00,,---,0.00,VWS V14.01,2013-03-01 14:16:00,
2013-03-01 09:21:00,27.3,23.7,30.00,NW,311,4.0,4.0,86,0.00,,---,0.00,VWS V14.01,2013-03-01 14:21:00,
2013-03-01 09:26:00,27.2,23.9,30.01,WNW,293,2.0,3.0,87,0.00,,---,0.00,VWS V14.01,2013-03-01 14:26:00,
2013-03-01 09:31:00,27.7,24.3,30.00,WNW,303,1.0,3.0,87,0.00,,---,0.00,VWS V14.01,2013-03-01 14:31:00,
2013-03-01 09:36:00,27.8,24.4,30.00,WNW,299,2.0,2.0,87,0.00,,---,0.00,VWS V14.01,2013-03-01 14:36:00,
2013-03-01 09:41:00,28.1,24.5,30.01,WNW,294,3.0,4.0,86,0.00,,---,0.00,VWS V14.01,2013-03-01 14:41:00,
2013-03-01 09:46:00,28.6,25.0,30.01,WNW,302,2.0,4.0,86,0.00,,---,0.00,VWS V14.01,2013-03-01 14:46:00,
2013-03-01 09:51:00,28.6,25.0,30.01,WNW,303,3.0,3.0,86,0.00,,---,0.00,VWS V14.01,2013-03-01 14:51:00,
2013-03-01 09:56:00,28.8,24.9,30.00,WNW,295,4.0,4.0,85,0.00,,---,0.00,VWS V14.01,2013-03-01 14:56:00,
2013-03-01 10:01:00,28.7,24.5,30.00,NNW,331,1.0,4.0,84,0.00,,---,0.00,VWS V14.01,2013-03-01 15:01:00,
2013-03-01 10:06:00,29.0,24.8,30.00,WNW,284,2.0,3.0,84,0.00,,---,0.00,VWS V14.01,2013-03-01 15:06:00,
2013-03-01 10:11:00,29.3,25.1,30.00,NW,315,2.0,5.0,84,0.00,,---,0.00,VWS V14.01,2013-03-01 15:11:00,
2013-03-01 10:16:00,29.5,24.7,30.00,WNW,293,2.0,3.0,82,0.00,,---,0.00,VWS V14.01,2013-03-01 15:16:00,
2013-03-01 10:21:00,30.1,25.3,30.00,North,352,3.0,7.0,82,0.00,,---,0.00,VWS V14.01,2013-03-01 15:21:00,
2013-03-01 10:26:00,30.3,26.1,30.00,NW,312,1.0,1.0,84,0.00,,---,0.00,VWS V14.01,2013-03-01 15:26:00,
2013-03-01 10:31:00,30.5,25.1,30.00,WNW,282,0.0,3.0,80,0.00,,---,0.00,VWS V14.01,2013-03-01 15:31:00,
2013-03-01 10:36:00,30.3,25.8,30.00,NW,306,2.0,4.0,83,0.00,,---,0.00,VWS V14.01,2013-03-01 15:36:00,
2013-03-01 10:41:00,30.2,25.7,30.01,WNW,297,0.0,3.0,83,0.00,,---,0.00,VWS V14.01,2013-03-01 15:41:00,
2013-03-01 10:46:00,30.5,25.1,30.01,WNW,282,2.0,4.0,80,0.00,,---,0.00,VWS V14.01,2013-03-01 15:46:00,
2013-03-01 10:51:00,30.3,25.2,30.01,WNW,296,2.0,6.0,81,0.00,,---,0.00,VWS V14.01,2013-03-01 15:51:00,
2013-03-01 10:56:00,31.1,26.0,30.01,West,275,1.0,3.0,81,0.00,,---,0.00,VWS V14.01,2013-03-01 15:56:00,
2013-03-01 11:01:00,30.9,25.8,30.01,West,263,3.0,3.0,81,0.00,,---,0.00,VWS V14.01,2013-03-01 16:01:00,
2013-03-01 11:06:00,31.0,25.9,30.01,West,272,2.0,7.0,81,0.00,,---,0.00,VWS V14.01,2013-03-01 16:06:00,
2013-03-01 11:11:00,30.3,25.2,30.01,NW,304,2.0,2.0,81,0.00,,---,0.00,VWS V14.01,2013-03-01 16:11:00,
2013-03-01 11:16:00,30.6,25.5,30.01,WNW,293,0.0,1.0,81,0.00,,---,0.00,VWS V14.01,2013-03-01 16:16:00,
2013-03-01 11:21:00,30.3,25.2,30.01,WNW,284,4.0,5.0,81,0.00,,---,0.00,VWS V14.01,2013-03-01 16:21:00,
2013-03-01 11:26:00,29.6,24.8,30.01,NNW,328,2.0,2.0,82,0.00,,---,0.00,VWS V14.01,2013-03-01 16:26:00,
2013-03-01 11:31:00,29.7,24.9,30.01,WNW,290,3.0,3.0,82,0.00,,---,0.00,VWS V14.01,2013-03-01 16:31:00,
2013-03-01 11:36:00,30.1,25.6,30.01,West,278,4.0,4.0,83,0.00,,---,0.00,VWS V14.01,2013-03-01 16:36:00,
2013-03-01 11:41:00,30.4,25.6,30.01,WNW,292,1.0,3.0,82,0.00,,---,0.00,VWS V14.01,2013-03-01 16:41:00,
2013-03-01 11:46:00,30.4,25.6,30.01,WNW,291,1.0,2.0,82,0.00,,---,0.00,VWS V14.01,2013-03-01 16:46:00,
2013-03-01 11:51:00,30.6,25.8,30.01,NW,305,1.0,3.0,82,0.00,,---,0.00,VWS V14.01,2013-03-01 16:51:00,
2013-03-01 11:56:00,30.8,26.3,30.00,West,276,1.0,3.0,83,0.00,,---,0.00,VWS V14.01,2013-03-01 16:56:00,
2013-03-01 12:01:00,30.4,25.6,30.00,WNW,295,2.0,3.0,82,0.00,,---,0.00,VWS V14.01,2013-03-01 17:01:00,
2013-03-01 12:06:00,30.8,26.0,30.00,SE,135,2.0,4.0,82,0.00,,---,0.00,VWS V14.01,2013-03-01 17:06:00,
2013-03-01 12:11:00,30.3,25.5,30.00,West,278,1.0,1.0,82,0.00,,---,0.00,VWS V14.01,2013-03-01 17:11:00,
2013-03-01 12:16:00,31.4,26.8,30.00,WNW,289,2.0,3.0,83,0.00,,---,0.00,VWS V14.01,2013-03-01 17:16:00,
2013-03-01 12:21:00,32.2,27.0,30.01,WNW,302,2.0,3.0,81,0.00,,---,0.00,VWS V14.01,2013-03-01 17:21:00,
2013-03-01 12:26:00,32.3,27.1,30.01,WNW,298,2.0,2.0,81,0.00,,---,0.00,VWS V14.01,2013-03-01 17:26:00,
2013-03-01 12:31:00,32.5,26.7,30.01,NW,310,0.0,2.0,79,0.00,,---,0.00,VWS V14.01,2013-03-01 17:31:00,
2013-03-01 12:36:00,31.9,26.4,30.01,WNW,285,0.0,1.0,80,0.00,,---,0.00,VWS V14.01,2013-03-01 17:36:00,
2013-03-01 12:41:00,32.0,26.8,30.00,NW,326,0.0,3.0,81,0.00,,---,0.00,VWS V14.01,2013-03-01 17:41:00,
2013-03-01 12:46:00,33.2,27.7,30.00,West,281,0.0,2.0,80,0.00,,---,0.00,VWS V14.01,2013-03-01 17:46:00,
2013-03-01 12:51:00,33.3,27.8,30.00,West,281,3.0,4.0,80,0.00,,---,0.00,VWS V14.01,2013-03-01 17:51:00,
2013-03-01 12:56:00,33.2,27.7,30.00,West,277,0.0,1.0,80,0.00,,---,0.00,VWS V14.01,2013-03-01 17:56:00,
2013-03-01 13:01:00,33.4,27.6,30.00,WNW,293,3.0,4.0,79,0.00,,---,0.00,VWS V14.01,2013-03-01 18:01:00,
2013-03-01 13:06:00,32.1,26.3,29.99,WNW,288,3.0,4.0,79,0.00,,---,0.00,VWS V14.01,2013-03-01 18:06:00,
2013-03-01 13:11:00,32.0,26.2,29.99,West,277,3.0,4.0,79,0.00,,---,0.00,VWS V14.01,2013-03-01 18:11:00,
2013-03-01 13:16:00,32.1,26.3,29.99,West,270,2.0,5.0,79,0.00,,---,0.00,VWS V14.01,2013-03-01 18:16:00,
2013-03-01 13:21:00,32.8,26.4,29.98,West,279,2.0,2.0,77,0.00,,---,0.00,VWS V14.01,2013-03-01 18:21:00,
2013-03-01 13:26:00,33.3,27.5,29.98,WNW,287,1.0,2.0,79,0.00,,---,0.00,VWS V14.01,2013-03-01 18:26:00,
2013-03-01 13:31:00,34.1,27.7,29.98,WNW,297,3.0,5.0,77,0.00,,---,0.00,VWS V14.01,2013-03-01 18:31:00,
2013-03-01 13:36:00,33.7,27.3,29.98,WSW,255,1.0,4.0,77,0.00,,---,0.00,VWS V14.01,2013-03-01 18:36:00,
2013-03-01 13:41:00,34.4,27.0,29.98,WNW,301,4.0,5.0,74,0.00,,---,0.00,VWS V14.01,2013-03-01 18:41:00,
2013-03-01 13:46:00,34.8,27.7,29.97,NW,318,5.0,5.0,75,0.00,,---,0.00,VWS V14.01,2013-03-01 18:46:00,
2013-03-01 13:51:00,35.3,27.9,29.97,West,280,2.0,6.0,74,0.00,,---,0.00,VWS V14.01,2013-03-01 18:51:00,
2013-03-01 13:56:00,35.6,28.1,29.97,NW,307,1.0,3.0,74,0.00,,---,0.00,VWS V14.01,2013-03-01 18:56:00,
2013-03-01 14:01:00,35.9,27.8,29.97,NW,316,1.0,7.0,72,0.00,,---,0.00,VWS V14.01,2013-03-01 19:01:00,
2013-03-01 14:06:00,35.8,27.3,29.97,NW,322,1.0,3.0,71,0.00,,---,0.00,VWS V14.01,2013-03-01 19:06:00,
2013-03-01 14:11:00,35.5,27.4,29.97,West,274,5.0,5.0,72,0.00,,---,0.00,VWS V14.01,2013-03-01 19:11:00,
2013-03-01 14:16:00,35.5,27.4,29.96,West,273,1.0,3.0,72,0.00,,---,0.00,VWS V14.01,2013-03-01 19:16:00,
2013-03-01 14:21:00,35.4,27.3,29.97,WSW,257,1.0,7.0,72,0.00,,---,0.00,VWS V14.01,2013-03-01 19:21:00,
2013-03-01 14:26:00,34.6,27.2,29.97,WNW,298,1.0,3.0,74,0.00,,---,0.00,VWS V14.01,2013-03-01 19:26:00,
2013-03-01 14:31:00,35.3,28.2,29.97,WNW,295,3.0,5.0,75,0.00,,---,0.00,VWS V14.01,2013-03-01 19:31:00,
2013-03-01 14:36:00,34.3,26.9,29.97,West,279,3.0,3.0,74,0.00,,---,0.00,VWS V14.01,2013-03-01 19:36:00,
2013-03-01 14:41:00,33.8,26.4,29.97,WNW,292,2.0,2.0,74,0.00,,---,0.00,VWS V14.01,2013-03-01 19:41:00,
2013-03-01 14:46:00,33.8,26.7,29.97,West,269,4.0,5.0,75,0.00,,---,0.00,VWS V14.01,2013-03-01 19:46:00,
2013-03-01 14:51:00,34.4,27.3,29.97,NW,313,2.0,3.0,75,0.00,,---,0.00,VWS V14.01,2013-03-01 19:51:00,
2013-03-01 14:56:00,34.1,26.7,29.96,NW,320,1.0,4.0,74,0.00,,---,0.00,VWS V14.01,2013-03-01 19:56:00,
2013-03-01 15:01:00,33.1,26.4,29.96,WNW,283,1.0,4.0,76,0.00,,---,0.00,VWS V14.01,2013-03-01 20:01:00,
2013-03-01 15:06:00,33.2,27.1,29.96,WNW,283,1.0,3.0,78,0.00,,---,0.00,VWS V14.01,2013-03-01 20:06:00,
2013-03-01 15:11:00,33.2,26.8,29.96,WNW,288,3.0,4.0,77,0.00,,---,0.00,VWS V14.01,2013-03-01 20:11:00,
2013-03-01 15:16:00,33.1,26.7,29.96,West,276,2.0,4.0,77,0.00,,---,0.00,VWS V14.01,2013-03-01 20:16:00,
2013-03-01 15:21:00,33.8,27.0,29.96,NW,304,2.0,4.0,76,0.00,,---,0.00,VWS V14.01,2013-03-01 20:21:00,
2013-03-01 15:26:00,34.0,27.2,29.96,West,281,1.0,4.0,76,0.00,,---,0.00,VWS V14.01,2013-03-01 20:26:00,
2013-03-01 15:31:00,34.1,27.3,29.96,WNW,301,3.0,3.0,76,0.00,,---,0.00,VWS V14.01,2013-03-01 20:31:00,
2013-03-01 15:36:00,34.5,27.1,29.96,WNW,286,3.0,3.0,74,0.00,,---,0.00,VWS V14.01,2013-03-01 20:36:00,
2013-03-01 15:41:00,34.1,27.3,29.96,WNW,289,2.0,4.0,76,0.00,,---,0.00,VWS V14.01,2013-03-01 20:41:00,
2013-03-01 15:46:00,34.4,27.0,29.96,West,270,4.0,4.0,74,0.00,,---,0.00,VWS V14.01,2013-03-01 20:46:00,
2013-03-01 15:51:00,34.1,26.7,29.96,WNW,297,1.0,3.0,74,0.00,,---,0.00,VWS V14.01,2013-03-01 20:51:00,
2013-03-01 15:56:00,33.8,27.0,29.96,WNW,291,3.0,5.0,76,0.00,,---,0.00,VWS V14.01,2013-03-01 20:56:00,
2013-03-01 16:01:00,33.1,26.0,29.96,WNW,288,0.0,2.0,75,0.00,,---,0.00,VWS V14.01,2013-03-01 21:01:00,
2013-03-01 16:06:00,33.0,26.6,29.95,NW,305,3.0,3.0,77,0.00,,---,0.00,VWS V14.01,2013-03-01 21:06:00,
2013-03-01 16:11:00,32.8,27.0,29.95,WNW,303,0.0,3.0,79,0.00,,---,0.00,VWS V14.01,2013-03-01 21:11:00,
2013-03-01 16:16:00,32.7,26.6,29.95,West,279,1.0,3.0,78,0.00,,---,0.00,VWS V14.01,2013-03-01 21:16:00,
2013-03-01 16:21:00,32.5,26.7,29.96,WNW,288,2.0,3.0,79,0.00,,---,0.00,VWS V14.01,2013-03-01 21:21:00,
2013-03-01 16:26:00,32.4,26.3,29.95,NW,310,3.0,4.0,78,0.00,,---,0.00,VWS V14.01,2013-03-01 21:26:00,
2013-03-01 16:31:00,32.7,26.9,29.95,WNW,284,0.0,3.0,79,0.00,,---,0.00,VWS V14.01,2013-03-01 21:31:00,
2013-03-01 16:36:00,32.8,27.0,29.95,West,280,1.0,5.0,79,0.00,,---,0.00,VWS V14.01,2013-03-01 21:36:00,
2013-03-01 16:41:00,32.1,26.3,29.95,West,277,5.0,5.0,79,0.00,,---,0.00,VWS V14.01,2013-03-01 21:41:00,
2013-03-01 16:46:00,31.5,26.0,29.96,NW,308,2.0,4.0,80,0.00,,---,0.00,VWS V14.01,2013-03-01 21:46:00,
2013-03-01 16:51:00,31.3,26.2,29.96,West,268,1.0,4.0,81,0.00,,---,0.00,VWS V14.01,2013-03-01 21:51:00,
2013-03-01 16:56:00,31.2,26.4,29.96,WNW,282,3.0,4.0,82,0.00,,---,0.00,VWS V14.01,2013-03-01 21:56:00,
2013-03-01 17:43:00,28.8,25.4,29.95,West,270,2.0,4.0,87,0.00,,---,0.00,VWS V14.01,2013-03-01 22:43:00,
2013-03-01 17:48:00,28.9,25.8,29.96,NNE,19,3.0,3.0,88,0.00,,---,0.00,VWS V14.01,2013-03-01 22:48:00,
2013-03-01 17:53:00,29.0,25.6,29.96,West,280,4.0,6.0,87,0.00,,---,0.00,VWS V14.01,2013-03-01 22:53:00,
2013-03-01 17:58:00,28.8,25.7,29.96,NW,305,4.0,9.0,88,0.00,,---,0.00,VWS V14.01,2013-03-01 22:58:00,
2013-03-01 18:18:00,28.5,25.7,29.97,WNW,292,2.0,4.0,89,0.00,,---,0.00,VWS V14.01,2013-03-01 23:18:00,
2013-03-01 18:23:00,28.4,25.3,29.97,NW,317,1.0,5.0,88,0.00,,---,0.00,VWS V14.01,2013-03-01 23:23:00,
2013-03-01 18:53:00,27.9,25.1,29.97,West,270,4.0,5.0,89,0.00,,---,0.00,VWS V14.01,2013-03-01 23:53:00,
2013-03-01 18:58:00,27.8,25.2,29.97,West,266,5.0,5.0,90,0.00,,---,0.00,VWS V14.01,2013-03-01 23:58:00,
2013-03-01 19:02:00,27.7,25.2,29.97,NW,326,1.0,5.0,90,0.00,,---,0.00,VWS V14.01,2013-03-02 00:02:00,
2013-03-01 19:07:00,27.6,25.1,29.97,WNW,303,1.0,2.0,90,0.00,,---,0.00,VWS V14.01,2013-03-02 00:07:00,
2013-03-01 19:12:00,27.5,25.0,29.97,West,270,5.0,5.0,90,0.00,,---,0.00,VWS V14.01,2013-03-02 00:12:00,
2013-03-01 19:17:00,27.5,25.0,29.97,NNW,330,4.0,5.0,90,0.00,,---,0.00,VWS V14.01,2013-03-02 00:17:00,
2013-03-01 19:23:00,27.5,25.0,29.98,NW,320,2.0,4.0,90,0.00,,---,0.00,VWS V14.01,2013-03-02 00:23:00,
2013-03-01 19:28:00,27.6,25.1,29.97,West,273,3.0,6.0,90,0.00,,---,0.00,VWS V14.01,2013-03-02 00:28:00,
2013-03-01 19:32:00,27.5,25.0,29.97,NW,318,4.0,5.0,90,0.00,,---,0.00,VWS V14.01,2013-03-02 00:32:00,
2013-03-01 19:37:00,27.4,24.9,29.97,NW,311,4.0,4.0,90,0.00,,---,0.00,VWS V14.01,2013-03-02 00:37:00,
2013-03-01 19:42:00,27.3,24.8,29.98,NNW,327,2.0,5.0,90,0.00,,---,0.00,VWS V14.01,2013-03-02 00:42:00,
2013-03-01 19:47:00,27.3,24.5,29.97,WNW,283,6.0,6.0,89,0.00,,---,0.00,VWS V14.01,2013-03-02 00:47:00,
2013-03-01 19:52:00,27.2,24.4,29.98,WNW,291,3.0,5.0,89,0.00,,---,0.00,VWS V14.01,2013-03-02 00:52:00,
2013-03-01 19:58:00,27.3,24.8,29.98,North,351,3.0,4.0,90,0.00,,---,0.00,VWS V14.01,2013-03-02 00:58:00,
2013-03-01 20:03:00,27.2,24.4,29.97,West,281,2.0,3.0,89,0.00,,---,0.00,VWS V14.01,2013-03-02 01:03:00,
2013-03-01 20:08:00,27.1,24.3,29.98,NNW,336,2.0,7.0,89,0.00,,---,0.00,VWS V14.01,2013-03-02 01:08:00,
2013-03-01 20:31:00,27.0,24.5,29.97,NW,315,3.0,5.0,90,0.00,,---,0.00,VWS V14.01,2013-03-02 01:31:00,
2013-03-01 20:36:00,27.0,24.2,29.97,SSW,199,5.0,5.0,89,0.00,,---,0.00,VWS V14.01,2013-03-02 01:36:00,
2013-03-01 20:43:00,27.0,24.5,29.97,WNW,293,5.0,5.0,90,0.00,,---,0.00,VWS V14.01,2013-03-02 01:43:00,
2013-03-01 20:48:00,27.0,24.2,29.97,NW,324,5.0,5.0,89,0.00,,---,0.00,VWS V14.01,2013-03-02 01:48:00,
2013-03-01 20:53:00,26.9,24.1,29.97,NW,318,6.0,8.0,89,0.00,,---,0.00,VWS V14.01,2013-03-02 01:53:00,
2013-03-01 20:58:00,26.9,24.4,29.97,NW,309,1.0,4.0,90,0.00,,---,0.00,VWS V14.01,2013-03-02 01:58:00,
2013-03-01 21:03:00,26.8,24.3,29.97,WNW,295,2.0,5.0,90,0.00,,---,0.00,VWS V14.01,2013-03-02 02:03:00,
2013-03-01 21:08:00,26.8,24.3,29.98,West,274,5.0,5.0,90,0.00,,---,0.00,VWS V14.01,2013-03-02 02:08:00,
2013-03-01 21:13:00,26.9,24.4,29.98,NNW,328,3.0,5.0,90,0.00,,---,0.00,VWS V14.01,2013-03-02 02:13:00,
2013-03-01 21:18:00,26.9,24.4,29.98,NNW,341,2.0,5.0,90,0.00,,---,0.00,VWS V14.01,2013-03-02 02:18:00,
2013-03-01 21:23:00,26.7,24.2,29.98,North,355,2.0,6.0,90,0.00,,---,0.00,VWS V14.01,2013-03-02 02:23:00,
2013-03-01 21:28:00,26.6,24.1,29.98,WNW,299,4.0,4.0,90,0.00,,---,0.00,VWS V14.01,2013-03-02 02:28:00,
2013-03-01 21:33:00,26.6,24.3,29.99,NW,313,1.0,3.0,91,0.00,,---,0.00,VWS V14.01,2013-03-02 02:33:00,
2013-03-01 21:38:00,26.7,24.4,29.98,West,278,4.0,4.0,91,0.00,,---,0.00,VWS V14.01,2013-03-02 02:38:00,
2013-03-01 21:43:00,26.7,24.4,29.99,NW,309,4.0,5.0,91,0.00,,---,0.00,VWS V14.01,2013-03-02 02:43:00,
2013-03-01 21:48:00,26.7,24.4,29.99,WNW,287,6.0,6.0,91,0.00,,---,0.00,VWS V14.01,2013-03-02 02:48:00,
2013-03-01 21:53:00,26.6,24.3,29.99,West,274,3.0,3.0,91,0.00,,---,0.00,VWS V14.01,2013-03-02 02:53:00,
2013-03-01 21:58:00,26.6,24.3,29.99,NNW,328,3.0,4.0,91,0.00,,---,0.00,VWS V14.01,2013-03-02 02:58:00,
2013-03-01 22:02:00,26.6,24.3,29.99,NNW,328,4.0,4.0,91,0.00,,---,0.00,VWS V14.01,2013-03-02 03:02:00,
2013-03-01 22:07:00,26.6,24.3,29.99,WNW,284,3.0,3.0,91,0.00,,---,0.00,VWS V14.01,2013-03-02 03:07:00,
2013-03-01 22:12:00,26.5,24.2,29.99,WNW,289,1.0,5.0,91,0.00,,---,0.00,VWS V14.01,2013-03-02 03:12:00,
2013-03-01 22:17:00,26.5,24.5,29.98,NW,312,1.0,5.0,92,0.00,,---,0.00,VWS V14.01,2013-03-02 03:17:00,
2013-03-01 22:22:00,26.5,24.5,29.98,NW,322,3.0,5.0,92,0.00,,---,0.00,VWS V14.01,2013-03-02 03:22:00,
2013-03-01 22:27:00,26.4,24.4,29.98,NW,314,5.0,6.0,92,0.00,,---,0.00,VWS V14.01,2013-03-02 03:27:00,
2013-03-01 22:32:00,26.3,24.3,29.98,NW,307,0.0,3.0,92,0.00,,---,0.00,VWS V14.01,2013-03-02 03:32:00,
2013-03-01 22:37:00,26.3,24.3,29.98,WNW,297,2.0,5.0,92,0.00,,---,0.00,VWS V14.01,2013-03-02 03:37:00,
2013-03-01 22:42:00,26.3,24.3,29.98,WNW,282,4.0,4.0,92,0.00,,---,0.00,VWS V14.01,2013-03-02 03:42:00,
2013-03-01 22:47:00,26.3,24.3,29.98,NW,307,4.0,5.0,92,0.00,,---,0.00,VWS V14.01,2013-03-02 03:47:00,
2013-03-01 22:52:00,26.2,24.5,29.97,West,277,2.0,4.0,93,0.00,,---,0.00,VWS V14.01,2013-03-02 03:52:00,
2013-03-01 22:57:00,26.1,24.4,29.97,WNW,292,2.0,3.0,93,0.00,,---,0.00,VWS V14.01,2013-03-02 03:57:00,
2013-03-01 23:02:00,26.0,24.3,29.97,NW,326,4.0,6.0,93,0.00,,---,0.00,VWS V14.01,2013-03-02 04:02:00,
2013-03-01 23:07:00,25.9,24.2,29.97,NW,311,3.0,3.0,93,0.00,,---,0.00,VWS V14.01,2013-03-02 04:07:00,
2013-03-01 23:12:00,25.9,24.2,29.97,West,281,5.0,6.0,93,0.00,,---,0.00,VWS V14.01,2013-03-02 04:12:00,
2013-03-01 23:17:00,25.9,24.2,29.97,WNW,293,3.0,5.0,93,0.00,,---,0.00,VWS V14.01,2013-03-02 04:17:00,
2013-03-01 23:22:00,25.8,24.1,29.97,WNW,299,2.0,4.0,93,0.00,,---,0.00,VWS V14.01,2013-03-02 04:22:00,
2013-03-01 23:27:00,25.8,24.1,29.97,West,276,3.0,3.0,93,0.00,,---,0.00,VWS V14.01,2013-03-02 04:27:00,
2013-03-01 23:32:00,25.7,24.0,29.96,NW,316,3.0,4.0,93,0.00,,---,0.00,VWS V14.01,2013-03-02 04:32:00,
2013-03-01 23:37:00,25.6,24.1,29.96,NW,316,3.0,4.0,94,0.00,,---,0.00,VWS V14.01,2013-03-02 04:37:00,
2013-03-01 23:42:00,25.6,24.1,29.96,West,273,2.0,6.0,94,0.00,,---,0.00,VWS V14.01,2013-03-02 04:42:00,
2013-03-01 23:47:00,25.6,24.1,29.96,WNW,283,7.0,7.0,94,0.00,,---,0.00,VWS V14.01,2013-03-02 04:47:00,
2013-03-01 23:52:00,25.6,24.1,29.96,NW,318,3.0,6.0,94,0.00,,---,0.00,VWS V14.01,2013-03-02 04:52:00,
2013-03-01 23:57:00,25.6,24.1,29.96,WNW,297,2.0,3.0,94,0.00,,---,0.00,VWS V14.01,2013-03-02 04:57:00,